Flag for U.S.A. Weather past 2 weeks in Cumberland, Maryland, U.S.A.

Now
26 °F

Passing clouds.


Feels Like: 17 °F
Forecast: 17 / 32 °F
Wind: 9 mph from Northwest

Location: Eastern West Virginia Regional Airport

Current Time: Jan 27, 2015 at 11:24:10 PM

Latest Report: Jan 27, 2015 at 10:53 PM


Visibility: 10 mi

Pressure: 30.02 "Hg

Humidity: 57%

Dew point: 13 °F

Location of CumberlandLocation

Historic Weather in Cumberland — Graph

°F

Cumberland temperature yesterday

Maximum temperature yesterday: 36 °F (at 12:53 AM)
Minimum temperature yesterday: 26 °F (at 5:53 PM)
Average temperature yesterday: 30 °F

Past Weeks' High & Low Weather Summary

 TemperatureHumidityPressure
High47 °F (Jan 19, 2:53 PM)92% (Jan 22, 3:53 AM)30.60 "Hg (Jan 22, 3:53 AM)
Low19 °F (Jan 17, 7:53 AM)30% (Jan 13, 4:53 PM)29.48 "Hg (Jan 24, 2:53 PM)
Average33 °F65%30.05 "Hg
* Reported Jan 12 9:53 PM — Jan 27 9:53 PM, Cumberland, Weather by CustomWeather, © 2014

Note: Actual official high and low records may vary slightly from our data, if they occured in-between our weather recording intervals... More about our weather records

Advertising

Cumberland weather history for previous 24 hours

 ConditionsComfort  
Time TempWeatherWind HumidityBarometerVisibility
9:53 PM
Jan 27
26 °FClear.12 mph57%29.98 "Hg10 mi
8:53 PM27 °FPassing clouds.9 mph58%29.97 "Hg10 mi
7:53 PM28 °FPassing clouds.14 mph58%29.94 "Hg10 mi
6:53 PM29 °FMostly cloudy.18 mph58%29.93 "Hg10 mi
5:53 PM29 °FOvercast.17 mph61%29.92 "Hg10 mi
4:53 PM31 °FCloudy.12 mph59%29.90 "Hg10 mi
3:53 PM32 °FOvercast.17 mph61%29.88 "Hg10 mi
2:53 PM32 °FOvercast.14 mph64%29.85 "Hg10 mi
1:53 PM31 °FLight snow. Mostly cloudy.13 mph69%29.84 "Hg6 mi
12:53 PM30 °FLight snow. Mostly cloudy.12 mph69%29.85 "Hg2 mi
11:53 AM30 °FOvercast.13 mph66%29.86 "Hg10 mi
10:53 AM29 °FOvercast.14 mph66%29.87 "Hg10 mi
9:53 AM29 °FMore clouds than sun.15 mph66%29.86 "Hg10 mi
8:53 AM27 °FLight snow. Cloudy.13 mph72%29.86 "Hg3 mi
7:53 AM27 °FLight snow. Mostly cloudy.10 mph72%29.85 "Hg3 mi
7:02 AM27 °FLight snow. Overcast.9 mph78%29.82 "Hg4 mi
5:53 AM28 °FLight snow. Mostly cloudy.10 mph72%29.82 "Hg3 mi
4:53 AM29 °FLight snow. Mostly cloudy.15 mph66%29.80 "Hg5 mi
3:53 AM28 °FOvercast.6 mph72%29.79 "Hg10 mi
2:53 AM28 °FOvercast.6 mph72%29.79 "Hg10 mi
1:53 AM27 °FOvercast.8 mph78%29.80 "Hg10 mi
12:53 AM27 °FOvercast.9 mph75%29.79 "Hg10 mi
11:53 PM
Jan 26
27 °FOvercast.9 mph78%29.80 "Hg10 mi
Weather by CustomWeather, © 2014

See weather overviewHow to use our weather pages